GW4332 Weather Reports


time (UTC)temp
F
wind
direction
speed
knots
gust
knots
rain 1hr
in
rain 24hr
in
rain mn
in
humidity
%
barometer
mb
20260506163030 55 87 4.3 12.2 0.00 0.00 0.00 55 1010.1
20260506162030 55 74 6.1 14.8 0.00 0.00 0.00 55 1009.9
20260506161030 55 75 7.8 16.5 0.00 0.00 0.00 56 1010.0
20260506160029 55 58 8.7 16.5 0.00 0.00 0.00 56 1010.0
20260506155029 56 77 7.8 13.0 0.00 0.00 0.00 55 1010.0
20260506154029 56 79 9.6 18.2 0.00 0.00 0.00 54 1010.0
20260506153029 56 82 7.8 15.6 0.00 0.00 0.00 54 1010.0
20260506152030 56 69 7.8 13.9 0.00 0.00 0.00 53 1010.0
20260506151030 56 45 8.7 13.0 0.00 0.00 0.00 53 1010.0
20260506150030 57 30 7.8 15.6 0.00 0.00 0.00 52 1009.9
20260506145029 57 45 7.8 13.9 0.00 0.00 0.00 51 1009.9
20260506144029 57 54 7.0 13.0 0.00 0.00 0.00 50 1009.9
20260506143029 57 53 8.7 14.8 0.00 0.00 0.00 48 1009.9
20260506142029 57 71 8.7 15.6 0.00 0.00 0.00 46 1009.8
20260506141030 57 73 7.0 14.8 0.00 0.00 0.00 49 1009.8
20260506140030 57 75 7.0 13.9 0.00 0.00 0.00 48 1009.8
20260506135030 57 67 8.7 16.5 0.00 0.00 0.00 49 1009.7
20260506134030 57 88 8.7 17.4 0.00 0.00 0.00 46 1009.6
20260506133029 57 87 8.7 18.2 0.00 0.00 0.00 47 1009.7
20260506132029 57 92 7.8 20.0 0.00 0.00 0.00 44 1009.7
20260506131029 57 77 11.3 20.0 0.00 0.00 0.00 44 1009.6
20260506130030 57 77 10.4 23.5 0.00 0.00 0.00 45 1009.6
20260506125029 57 70 9.6 20.9 0.00 0.00 0.00 46 1009.5
20260506124029 57 81 10.4 20.9 0.00 0.00 0.00 44 1009.5
20260506123030 57 71 10.4 18.2 0.00 0.00 0.00 45 1009.5
20260506122030 57 72 10.4 18.2 0.00 0.00 0.00 47 1009.4
20260506121030 57 66 8.7 16.5 0.00 0.00 0.00 46 1009.4
20260506120030 57 80 4.3 15.6 0.00 0.00 0.00 47 1009.5
20260506115030 58 77 8.7 20.9 0.00 0.00 0.00 45 1009.4
20260506114030 58 96 6.1 21.7 0.00 0.00 0.00 49 1009.4
20260506113030 57 72 7.8 20.0 0.00 0.00 0.00 51 1009.3
20260506112030 57 98 4.3 16.5 0.00 0.00 0.00 50 1009.4
20260506111029 56 77 7.8 16.5 0.00 0.00 0.00 49 1009.3
20260506110030 57 73 7.8 17.4 0.00 0.00 0.00 49 1009.2
20260506105030 57 77 9.6 20.0 0.00 0.00 0.00 47 1009.2
20260506104030 56 82 7.0 19.1 0.00 0.00 0.00 51 1009.3
20260506103030 56 65 7.0 14.8 0.00 0.00 0.00 56 1009.3
20260506102030 56 67 7.0 16.5 0.00 0.00 0.00 56 1009.3
20260506101029 56 55 7.8 13.0 0.00 0.00 0.00 56 1009.2
20260506100029 55 67 7.8 16.5 0.00 0.00 0.00 57 1009.2
20260506095029 55 51 9.6 18.2 0.00 0.00 0.00 58 1009.1
20260506094030 55 66 8.7 18.2 0.00 0.00 0.00 61 1009.1
20260506093030 54 59 9.6 18.2 0.00 0.00 0.00 61 1009.1
20260506092029 54 40 7.8 14.8 0.00 0.00 0.00 71 1009.0
20260506091030 54 33 7.8 13.0 0.00 0.00 0.00 73 1009.0
20260506090029 54 33 7.8 13.0 0.00 0.00 0.00 73 1009.0
20260506085030 54 19 7.8 14.8 0.00 0.00 0.00 75 1008.9
20260506084030 54 47 7.0 13.0 0.00 0.00 0.00 76 1008.9
20260506083030 53 60 7.0 14.8 0.00 0.00 0.00 76 1008.9
20260506082030 53 47 6.1 12.2 0.00 0.00 0.00 77 1008.9
20260506081029 53 38 7.8 12.2 0.00 0.00 0.00 77 1008.9
20260506073029 53 61 9.6 16.5 0.00 0.00 0.00 75 1008.8
20260506072029 53 52 9.6 14.8 0.00 0.00 0.00 74 1008.8
20260506071030 53 62 9.6 14.8 0.00 0.00 0.00 74 1008.6
20260506062029 51 67 5.2 11.3 0.00 0.00 0.00 80 1008.3
20260506061029 51 60 7.0 13.9 0.00 0.00 0.00 82 1008.2
20260506051030 51 37 7.8 12.2 0.00 0.00 0.00 83 1008.3
20260506045029 51 31 7.8 12.2 0.00 0.00 0.00 83 1008.2
20260506044029 50 40 7.8 11.3 0.00 0.00 0.00 83 1008.3
20260506043030 50 37 8.7 13.0 0.00 0.00 0.00 83 1008.3
20260506042030 50 36 7.0 11.3 0.00 0.00 0.00 83 1008.3
20260506041030 50 32 8.7 13.0 0.00 0.00 0.00 83 1008.2
20260506040029 50 35 8.7 13.9 0.00 0.00 0.00 83 1008.2
20260506035029 50 32 7.8 12.2 0.00 0.00 0.00 83 1008.3
20260506034030 50 45 7.8 11.3 0.00 0.00 0.00 83 1008.3
20260506033030 50 38 7.8 13.0 0.00 0.00 0.00 83 1008.5
20260506032030 50 40 9.6 15.6 0.00 0.00 0.00 83 1008.5
20260506031030 50 38 9.6 15.6 0.00 0.00 0.00 83 1008.6
20260506030030 50 39 9.6 16.5 0.00 0.00 0.00 83 1008.7
20260506025029 50 36 8.7 13.9 0.00 0.00 0.00 83 1008.9
20260506024030 50 36 8.7 14.8 0.00 0.00 0.00 82 1008.9
20260506023030 50 43 8.7 13.9 0.00 0.00 0.00 82 1008.9
20260506022030 50 46 7.8 13.0 0.00 0.00 0.00 81 1009.0
20260506021029 51 37 7.8 12.2 0.00 0.00 0.00 80 1008.9
20260506020029 51 39 7.0 12.2 0.00 0.00 0.00 80 1008.9
20260506015030 50 43 7.8 12.2 0.00 0.00 0.00 79 1008.9
20260506014030 50 44 7.0 12.2 0.00 0.00 0.00 79 1009.0
20260506013030 50 46 9.6 14.8 0.00 0.00 0.00 79 1009.1
20260506012029 50 47 7.8 13.9 0.00 0.00 0.00 79 1009.1
20260506011029 50 41 8.7 16.5 0.00 0.00 0.00 79 1009.1
20260506010030 51 45 9.6 14.8 0.00 0.00 0.00 79 1009.3
20260506005030 51 50 7.8 12.2 0.00 0.00 0.00 78 1009.4
20260506004030 51 41 10.4 16.5 0.00 0.00 0.00 78 1009.5
20260506003030 51 41 9.6 16.5 0.00 0.00 0.00 78 1009.5
20260506002029 51 39 8.7 15.6 0.00 0.00 0.00 78 1009.6
20260506001030 51 49 9.6 18.2 0.00 0.00 0.00 78 1009.7
20260506000030 50 45 8.7 16.5 0.00 0.00 0.00 78 1009.7
20260505235030 50 35 8.7 14.8 0.00 0.00 0.00 79 1009.9
20260505234029 50 36 7.8 14.8 0.00 0.00 0.00 79 1010.0
20260505233029 50 36 8.7 13.0 0.00 0.00 0.00 79 1010.0
20260505232030 50 33 8.7 15.6 0.00 0.00 0.00 79 1010.1
20260505231030 50 37 7.8 12.2 0.00 0.00 0.00 80 1010.1
20260505230030 50 43 8.7 13.9 0.00 0.00 0.00 80 1010.1
20260505225030 50 43 8.7 14.8 0.00 0.00 0.00 80 1010.2
20260505224030 50 49 9.6 14.8 0.00 0.00 0.00 80 1010.2
20260505223029 50 45 8.7 13.9 0.00 0.00 0.00 80 1010.6
20260505222029 50 50 8.7 13.9 0.00 0.00 0.00 80 1010.6
20260505221029 50 39 8.7 14.8 0.00 0.00 0.00 80 1010.6
20260505220029 50 48 8.7 13.0 0.00 0.00 0.00 79 1010.7
20260505215029 50 47 9.6 14.8 0.00 0.00 0.00 79 1010.6
20260505214030 51 43 7.0 12.2 0.00 0.00 0.00 79 1010.7
20260505213030 51 49 8.7 13.9 0.00 0.00 0.00 79 1010.7
20260505212030 51 40 8.7 13.9 0.00 0.00 0.00 78 1010.7
20260505211030 51 47 7.8 13.9 0.00 0.00 0.00 78 1010.7
20260505210030 51 34 9.6 15.6 0.00 0.00 0.00 77 1010.8
20260505205030 51 39 9.6 15.6 0.00 0.00 0.00 76 1010.9
20260505204030 51 42 7.8 15.6 0.00 0.00 0.00 76 1010.9
20260505203030 51 61 8.7 15.6 0.00 0.00 0.00 74 1011.1
20260505202029 51 46 7.8 12.2 0.00 0.00 0.00 73 1011.0
20260505201029 51 46 7.8 14.8 0.00 0.00 0.00 71 1011.0
20260505200030 51 39 7.8 14.8 0.00 0.00 0.00 70 1010.9
20260505195030 51 54 6.1 12.2 0.00 0.00 0.00 70 1010.8
20260505194030 51 40 7.8 12.2 0.00 0.00 0.00 70 1010.7
20260505193030 52 31 7.8 13.0 0.00 0.00 0.00 70 1010.6
20260505192030 52 40 9.6 16.5 0.00 0.00 0.00 70 1010.6
20260505191030 52 47 7.8 13.0 0.00 0.00 0.00 70 1010.5
20260505190030 53 41 7.8 14.8 0.00 0.00 0.00 71 1010.3
20260505185029 53 36 7.8 14.8 0.00 0.00 0.00 70 1010.3
20260505184029 53 42 7.0 12.2 0.00 0.00 0.00 71 1010.2
20260505183030 53 31 7.8 13.0 0.00 0.00 0.00 71 1010.2
20260505182030 53 44 7.8 13.9 0.00 0.00 0.00 70 1010.2
20260505181030 54 31 7.8 12.2 0.00 0.00 0.00 71 1010.3
20260505180030 54 43 7.8 13.0 0.00 0.00 0.00 69 1010.3
20260505175029 54 40 7.8 13.9 0.00 0.00 0.00 68 1010.3
20260505174029 55 22 7.8 12.2 0.00 0.00 0.00 68 1010.4
20260505173030 55 40 7.8 13.9 0.00 0.00 0.00 68 1010.3
20260505172030 55 44 7.8 13.9 0.00 0.00 0.00 67 1010.5
20260505171030 55 38 8.7 15.6 0.00 0.00 0.00 68 1010.3
20260505170030 55 29 7.0 13.0 0.00 0.00 0.00 68 1010.4
20260505165030 55 39 7.0 13.0 0.00 0.00 0.00 68 1010.3
20260505164030 56 41 7.8 12.2 0.00 0.00 0.00 67 1010.4